1537498801.02,41774,19.94,74360.3,1.11,-10.53,-11.29,0,*71
1537498802.23,41775,19.94,74360.0,1.11,-10.35,-10.93,0,*70
1537498803.43,41776,19.88,74356.3,1.11,-10.45,-11.01,0,*7E
1537498804.69,41777,19.88,74356.0,1.09,-10.67,-11.23,0,*76
1537498805.97,41778,19.94,74358.5,1.09,-10.79,-11.37,0,*73
1537498807.23,41779,19.88,74358.5,1.09,-10.67,-11.23,0,*78
1537498808.51,41780,19.94,74360.8,1.09,-10.41,-11.07,0,*7C
1537498809.72,41781,19.88,74356.3,1.11,-10.31,-10.89,0,*74
1537498810.95,41782,19.94,74362.0,1.09,-10.57,-11.11,0,*7E
1537498812.17,41783,19.94,74358.3,1.09,-10.49,-11.11,0,*70
1537498813.4,41784,19.88,74360.3,1.11,-10.49,-11.07,0,*79
1537498814.68,41785,19.94,74362.5,1.09,-10.67,-11.33,0,*7A
1537498815.94,41786,19.94,74358.8,1.09,-10.67,-11.23,0,*78
1537498817.17,41787,19.88,74356.0,1.11,-10.49,-11.07,0,*7A
1537498818.38,41788,19.88,74356.5,1.11,-10.45,-11.01,0,*7F
1537498819.59,41789,19.94,74360.8,1.11,-10.35,-11.01,0,*79
1537498820.82,41790,19.94,74360.3,1.11,-10.41,-10.93,0,*78
1537498822.04,41791,19.94,74362.0,1.11,-10.35,-11.01,0,*70
1537498823.26,41792,19.94,74358.3,1.09,-10.49,-11.11,0,*70
1537498824.49,41793,19.94,74358.3,1.09,-10.49,-11.11,0,*71
1537498825.7,41794,19.94,74358.3,1.11,-10.35,-10.93,0,*7F
1537498826.98,41795,19.88,74358.0,1.09,-10.41,-11.07,0,*78
1537498828.23,41796,19.94,74360.3,1.09,-10.57,-11.33,0,*7B
1537498829.46,41797,19.94,74362.5,1.09,-10.49,-11.11,0,*75
1537498830.66,41798,19.94,74362.8,1.11,-10.49,-11.15,0,*77
1537498831.89,41799,19.94,74360.8,1.09,-10.49,-11.11,0,*7B
1537498833.15,41800,19.94,74362.0,1.09,-10.41,-10.97,0,*73
1537498834.4,41801,19.94,74360.5,1.09,-10.49,-11.07,0,*72
1537498835.6,41802,19.94,74362.8,1.11,-10.49,-11.15,0,*7B
1537498836.81,41803,19.94,74364.5,1.11,-10.49,-11.19,0,*76
1537498838.09,41804,19.88,74360.5,1.09,-10.41,-11.07,0,*7F
1537498839.31,41805,19.88,74356.5,1.09,-10.49,-11.19,0,*79
1537498840.52,41806,19.94,74362.5,1.11,-10.49,-11.15,0,*7F
1537498841.74,41807,19.88,74356.3,1.09,-10.49,-11.11,0,*73
1537498842.98,41808,19.94,74362.5,1.11,-10.49,-11.07,0,*72
1537498844.2,41809,19.94,74360.3,1.09,-10.49,-11.19,0,*75
1537498845.44,41810,19.94,74364.3,1.11,-10.35,-11.07,0,*70
1537498846.7,41811,19.94,74362.0,1.09,-10.41,-10.97,0,*73
1537498847.93,41812,19.94,74364.5,1.11,-10.45,-11.07,0,*75
1537498849.16,41813,19.94,74364.0,1.09,-10.57,-11.23,0,*78
1537498850.44,41814,19.88,74360.5,1.09,-10.67,-11.33,0,*7D
1537498851.66,41815,19.94,74364.0,1.09,-10.53,-11.19,0,*73
1537498852.87,41816,19.94,74360.8,1.11,-10.35,-10.93,0,*7A
1537498854.08,41817,19.88,74360.8,1.11,-10.31,-11.01,0,*75
1537498855.29,41818,19.88,74360.3,1.11,-10.35,-11.01,0,*7E
1537498856.5,41819,19.88,74360.0,1.11,-10.35,-11.01,0,*7F
1537498857.73,41820,19.94,74364.0,1.09,-10.49,-10.97,0,*79
1537498858.94,41821,19.88,74362.8,1.11,-10.57,-11.19,0,*79
1537498860.14,41822,19.94,74364.0,1.11,-10.57,-11.23,0,*73
1537498861.36,41823,19.88,74364.5,1.09,-10.53,-11.19,0,*76
1537498862.59,41824,19.88,74362.0,1.11,-10.45,-11.07,0,*70
1537498863.83,41825,19.88,74366.0,1.11,-10.35,-11.07,0,*76
1537498865.04,41826,19.94,74366.8,1.11,-10.35,-10.93,0,*79
1537498866.25,41827,19.88,74362.3,1.11,-10.31,-10.89,0,*77
1537498867.48,41828,19.88,74364.0,1.11,-10.23,-10.79,0,*74
1537498868.71,41829,19.88,74366.0,1.11,-10.45,-11.07,0,*7D
1537498869.98,41830,19.88,74366.5,1.09,-10.41,-10.97,0,*70
1537498871.18,41831,19.88,74366.0,1.11,-10.35,-11.15,0,*70
1537498872.39,41832,19.94,74362.8,1.11,-10.35,-10.93,0,*7C
1537498873.63,41833,19.94,74366.8,1.11,-10.45,-11.07,0,*76
1537498874.83,41834,19.88,74364.5,1.11,-10.49,-11.15,0,*7E
1537498876.03,41835,19.88,74364.8,1.11,-10.45,-11.15,0,*73
1537498877.27,41836,19.94,74368.3,1.11,-10.35,-11.07,0,*74
1537498878.5,41837,19.88,74366.8,1.11,-10.45,-11.07,0,*72
1537498879.73,41838,19.94,74366.8,1.11,-10.45,-11.07,0,*7D
1537498880.97,41839,19.88,74366.5,1.13,-10.35,-11.15,0,*7A
1537498882.23,41840,19.88,74366.8,1.13,-10.45,-11.07,0,*70
1537498883.49,41841,19.94,74366.3,1.13,-10.45,-11.07,0,*71
1537498884.71,41842,19.94,74366.8,1.13,-10.49,-11.19,0,*71
1537498885.95,41843,19.88,74366.0,1.11,-10.49,-11.07,0,*7D
1537498887.18,41844,19.94,74364.5,1.13,-10.35,-11.01,0,*75
1537498888.4,41845,19.88,74362.5,1.11,-10.35,-10.93,0,*7C
1537498889.61,41846,19.88,74362.3,1.11,-10.35,-10.93,0,*7F
1537498890.84,41847,19.94,74366.8,1.11,-10.35,-11.07,0,*72
1537498892.08,41848,19.88,74364.0,1.13,-10.35,-11.01,0,*79
1537498893.29,41849,19.88,74362.8,1.11,-10.35,-10.93,0,*70
1537498894.5,41850,19.88,74360.8,1.11,-10.31,-10.89,0,*77
1537498895.71,41851,19.88,74366.0,1.15,-10.27,-10.89,0,*75
1537498896.97,41852,19.94,74364.0,1.13,-10.31,-10.75,0,*74
1537498898.2,41853,19.94,74364.5,1.13,-10.31,-10.89,0,*76
1537498899.47,41854,19.88,74364.5,1.13,-10.19,-10.79,0,*74
1537498900.68,41855,19.88,74364.8,1.15,-10.19,-10.89,0,*7C
1537498901.91,41856,19.88,74364.0,1.13,-10.31,-10.89,0,*73
1537498903.15,41857,19.88,74364.0,1.13,-10.31,-10.93,0,*79
1537498904.36,41858,19.94,74366.3,1.15,-10.27,-10.89,0,*7C
1537498905.6,41859,19.94,74366.8,1.15,-10.19,-10.75,0,*73
1537498906.8,41860,19.88,74364.0,1.15,-10.19,-10.85,0,*76
1537498908.01,41861,19.88,74366.3,1.15,-10.27,-10.85,0,*7A
1537498909.22,41862,19.88,74364.3,1.15,-10.27,-10.97,0,*7A
1537498910.43,41863,19.88,74364.8,1.15,-10.31,-10.97,0,*7C
1537498911.67,41864,19.88,74360.3,1.13,-10.31,-10.89,0,*72
1537498912.93,41865,19.94,74364.3,1.13,-10.35,-11.07,0,*70
1537498914.17,41866,19.88,74366.0,1.15,-10.41,-10.97,0,*7E
1537498915.38,41867,19.88,74366.8,1.15,-10.45,-11.11,0,*74
1537498916.58,41868,19.88,74364.0,1.15,-10.49,-11.11,0,*77
1537498917.84,41869,19.88,74366.0,1.13,-10.49,-11.29,0,*7B
1537498919.08,41870,19.88,74366.3,1.15,-10.41,-11.01,0,*77
1537498920.28,41871,19.88,74364.3,1.15,-10.45,-11.11,0,*73
1537498921.49,41872,19.88,74364.5,1.15,-10.49,-11.11,0,*7C
1537498922.69,41873,19.88,74364.8,1.15,-10.49,-11.11,0,*7D
1537498923.93,41874,19.94,74366.3,1.15,-10.41,-11.15,0,*76
1537498925.14,41875,19.88,74364.5,1.15,-10.49,-11.23,0,*7A
1537498926.34,41876,19.94,74370.0,1.15,-10.45,-11.15,0,*70
1537498927.55,41877,19.88,74364.5,1.15,-10.49,-11.11,0,*79
1537498928.78,41878,19.88,74364.8,1.15,-10.41,-11.15,0,*7A
1537498929.99,41879,19.94,74368.3,1.15,-10.49,-11.15,0,*73
1537498931.22,41880,19.88,74364.8,1.13,-10.45,-11.19,0,*73
1537498932.42,41881,19.88,74370.5,1.15,-10.49,-11.23,0,*71
1537498933.65,41882,19.88,74364.3,1.13,-10.49,-11.19,0,*7D
1537498934.88,41883,19.88,74364.8,1.13,-10.53,-11.19,0,*77
1537498936.08,41884,19.94,74366.3,1.15,-10.45,-11.23,0,*78
1537498937.37,41885,19.88,74364.3,1.13,-10.67,-11.33,0,*7E
1537498938.65,41886,19.88,74366.0,1.13,-10.67,-11.29,0,*76
1537498939.86,41887,19.88,74364.3,1.15,-10.57,-11.19,0,*71
1537498941.07,41888,19.94,74364.0,1.15,-10.57,-11.23,0,*77
1537498942.3,41889,19.88,74360.5,1.13,-10.49,-11.19,0,*76
1537498943.51,41890,19.88,74362.5,1.15,-10.45,-11.11,0,*7C
1537498944.73,41891,19.88,74364.0,1.17,-10.45,-11.11,0,*7F
1537498945.96,41892,19.94,74366.0,1.13,-10.45,-11.15,0,*7C
1537498947.17,41893,19.88,74364.0,1.15,-10.45,-11.15,0,*7B
1537498948.37,41894,19.88,74364.0,1.15,-10.49,-11.15,0,*70
1537498949.58,41895,19.88,74362.0,1.15,-10.45,-11.15,0,*7D
1537498950.83,41896,19.94,74368.5,1.13,-10.53,-11.29,0,*70
1537498952.08,41897,19.88,74364.8,1.13,-10.53,-11.29,0,*71
1537498953.29,41898,19.88,74360.8,1.15,-10.49,-11.15,0,*7C
1537498954.5,41899,19.88,74362.8,1.15,-10.49,-11.23,0,*78
1537498955.73,41900,19.88,74366.5,1.13,-10.45,-11.15,0,*76
1537498956.93,41901,19.88,74364.3,1.15,-10.49,-11.15,0,*7D
1537498958.14,41902,19.88,74364.3,1.15,-10.49,-11.15,0,*7E
1537498959.34,41903,19.88,74362.5,1.15,-10.49,-11.23,0,*7A
1537498960.58,41904,19.88,74366.5,1.15,-10.63,-11.23,0,*75
1537498961.79,41905,19.88,74364.8,1.15,-10.45,-11.15,0,*75
1537498963.02,41906,19.88,74362.0,1.15,-10.63,-11.23,0,*77
1537498964.23,41907,19.88,74364.3,1.15,-10.57,-11.23,0,*71
1537498965.47,41908,19.88,74366.0,1.15,-10.63,-11.23,0,*79
1537498966.7,41909,19.88,74364.5,1.15,-10.63,-11.23,0,*78
1537498967.91,41910,19.88,74362.0,1.15,-10.57,-11.23,0,*77
1537498969.12,41911,19.88,74366.3,1.15,-10.49,-11.23,0,*79
1537498970.32,41912,19.88,74366.5,1.15,-10.49,-11.15,0,*7F
1537498971.53,41913,19.88,74366.8,1.15,-10.45,-11.15,0,*72
1537498972.74,41914,19.88,74366.3,1.15,-10.49,-11.11,0,*7D
1537498973.99,41915,19.88,74362.5,1.13,-10.53,-11.29,0,*7A
1537498975.24,41916,19.88,74366.3,1.13,-10.53,-11.29,0,*79
1537498976.45,41917,19.88,74364.0,1.15,-10.49,-11.23,0,*7F
1537498977.74,41918,19.88,74370.3,1.13,-10.67,-11.29,0,*70
1537498978.97,41919,19.88,74368.3,1.15,-10.75,-11.45,0,*7E
1537498980.23,41920,19.88,74366.5,1.15,-10.71,-11.33,0,*71
1537498981.46,41921,19.88,74366.0,1.15,-10.49,-11.29,0,*70
1537498982.7,41922,19.88,74364.3,1.15,-10.63,-11.23,0,*71
1537498983.95,41923,19.88,74366.5,1.15,-10.71,-11.33,0,*72
1537498985.23,41924,19.88,74364.8,1.13,-10.79,-11.37,0,*7F
1537498986.49,41925,19.88,74364.5,1.15,-10.71,-11.33,0,*74
1537498987.77,41926,19.88,74366.5,1.13,-10.79,-11.37,0,*7D
1537498989.03,41927,19.88,74362.5,1.15,-10.75,-11.29,0,*79
1537498990.31,41928,19.88,74362.0,1.13,-10.75,-11.37,0,*7F
1537498991.59,41929,19.88,74362.5,1.13,-10.79,-11.37,0,*72
1537498992.84,41930,19.88,74364.8,1.15,-10.71,-11.33,0,*70
1537498994.12,41931,19.88,74362.8,1.13,-10.75,-11.33,0,*73
1537498995.38,41932,19.88,74364.3,1.15,-10.63,-11.29,0,*7A
1537498996.66,41933,19.88,74364.3,1.13,-10.63,-11.33,0,*76
1537498997.94,41934,19.88,74364.5,1.13,-10.75,-11.33,0,*76
1537498999.19,41935,19.88,74366.3,1.15,-10.79,-11.33,0,*7D
1537499000.47,41936,19.88,74366.8,1.13,-10.75,-11.33,0,*74
1537499001.75,41937,19.88,74364.8,1.13,-10.71,-11.29,0,*7A
1537499002.99,41938,19.88,74366.3,1.15,-10.57,-11.29,0,*77
1537499004.27,41939,19.88,74364.5,1.13,-10.75,-11.29,0,*70
1537499005.56,41940,19.88,74366.8,1.13,-10.67,-11.33,0,*76
1537499006.79,41941,19.88,74364.8,1.15,-10.57,-11.29,0,*79
1537499008.0,41942,19.88,74362.0,1.15,-10.49,-11.15,0,*7A
1537499009.23,41943,19.88,74362.5,1.15,-10.49,-11.29,0,*74
1537499010.44,41944,19.88,74364.0,1.15,-10.49,-11.15,0,*7C
1537499011.67,41945,19.88,74364.0,1.15,-10.63,-11.23,0,*70
1537499012.88,41946,19.88,74366.5,1.15,-10.57,-11.23,0,*74
1537499014.17,41947,19.88,74362.5,1.13,-10.63,-11.29,0,*7E
1537499015.43,41948,19.88,74366.3,1.13,-10.67,-11.23,0,*7F
1537499016.72,41949,19.88,74362.0,1.13,-10.63,-11.29,0,*70
1537499017.92,41950,19.88,74360.3,1.15,-10.57,-11.23,0,*73
1537499019.13,41951,19.88,74364.5,1.15,-10.57,-11.23,0,*72
1537499020.42,41952,19.88,74366.0,1.13,-10.67,-11.29,0,*7E
1537499021.7,41953,19.88,74364.0,1.13,-10.67,-11.33,0,*74
1537499022.99,41954,19.88,74366.0,1.13,-10.63,-11.29,0,*7C
1537499024.25,41955,19.88,74362.5,1.15,-10.63,-11.29,0,*7B
1537499025.51,41956,19.88,74364.3,1.15,-10.71,-11.33,0,*70
1537499026.77,41957,19.88,74366.8,1.15,-10.71,-11.33,0,*71
1537499028.02,41958,19.88,74364.3,1.15,-10.75,-11.29,0,*71
1537499029.31,41959,19.88,74364.5,1.13,-10.75,-11.29,0,*76
1537499030.55,41960,19.88,74366.5,1.15,-10.75,-11.41,0,*74
1537499031.8,41961,19.88,74364.3,1.15,-10.75,-11.33,0,*70
1537499033.08,41962,19.88,74362.0,1.13,-10.79,-11.51,0,*7D
1537499034.34,41963,19.88,74364.8,1.13,-10.79,-11.45,0,*79
1537499035.6,41964,19.88,74360.8,1.15,-10.63,-11.29,0,*79
1537499036.85,41965,19.88,74360.8,1.15,-10.71,-11.33,0,*70
1537499038.12,41966,19.88,74364.3,1.15,-10.63,-11.29,0,*7B
1537499039.4,41967,19.88,74360.8,1.13,-10.67,-11.33,0,*73
1537499040.66,41968,19.88,74366.0,1.15,-10.63,-11.29,0,*75
1537499041.95,41969,19.88,74364.0,1.13,-10.67,-11.33,0,*7D
1537499043.2,41970,19.88,74360.3,1.13,-10.75,-11.45,0,*77
1537499044.44,41971,19.88,74364.3,1.15,-10.57,-11.29,0,*7A
1537499045.7,41972,19.88,74368.8,1.13,-10.49,-11.29,0,*70
1537499046.93,41973,19.88,74360.0,1.15,-10.63,-11.23,0,*75
1537499048.14,41974,19.88,74364.8,1.15,-10.57,-11.23,0,*75
1537499049.35,41975,19.88,74364.5,1.15,-10.49,-11.23,0,*7B
1537499050.55,41976,19.88,74362.3,1.15,-10.45,-11.15,0,*71
1537499051.8,41977,19.88,74364.0,1.13,-10.53,-11.29,0,*7E
1537499053.01,41978,19.88,74362.0,1.15,-10.57,-11.23,0,*79
1537499054.22,41979,19.88,74366.0,1.15,-10.57,-11.23,0,*78
1537499055.45,41980,19.88,74366.0,1.13,-10.53,-11.19,0,*75
1537499056.65,41981,19.88,74364.0,1.15,-10.49,-11.23,0,*70
1537499057.92,41982,19.88,74362.0,1.15,-10.71,-11.29,0,*72
1537499059.17,41983,19.88,74366.0,1.15,-10.71,-11.33,0,*78
1537499060.41,41984,19.88,74362.8,1.15,-10.57,-11.29,0,*70
1537499061.61,41985,19.88,74360.8,1.15,-10.49,-11.15,0,*71
1537499062.84,41986,19.88,74364.8,1.13,-10.53,-11.19,0,*73
1537499064.04,41987,19.88,74360.5,1.15,-10.49,-11.23,0,*76
1537499065.25,41988,19.88,74362.5,1.15,-10.45,-11.15,0,*70
1537499066.46,41989,19.88,74360.5,1.15,-10.45,-11.15,0,*71
1537499067.66,41990,19.88,74358.3,1.15,-10.49,-11.15,0,*75
1537499068.9,41991,19.88,74364.3,1.15,-10.41,-11.11,0,*78
1537499070.1,41992,19.88,74364.8,1.15,-10.45,-11.11,0,*7F
1537499071.31,41993,19.88,74364.5,1.15,-10.49,-11.23,0,*73
1537499072.52,41994,19.88,74364.3,1.15,-10.49,-11.15,0,*71
1537499073.72,41995,19.88,74364.0,1.15,-10.49,-11.23,0,*75
1537499074.95,41996,19.88,74364.0,1.17,-10.49,-11.23,0,*74
1537499076.15,41997,19.88,74362.5,1.15,-10.49,-11.23,0,*77
1537499077.39,41998,19.88,74364.0,1.15,-10.63,-11.15,0,*75
1537499078.64,41999,19.88,74362.0,1.15,-10.71,-11.33,0,*73
1537499079.88,42000,19.88,74364.3,1.15,-10.57,-11.29,0,*76
1537499081.09,42001,19.88,74360.8,1.15,-10.57,-11.23,0,*7D
1537499082.3,42002,19.88,74362.8,1.15,-10.57,-11.23,0,*7E
1537499083.5,42003,19.88,74360.5,1.15,-10.45,-11.15,0,*79
1537499084.73,42004,19.88,74360.8,1.17,-10.45,-11.15,0,*7C
1537499085.95,42005,19.88,74364.0,1.17,-10.45,-11.11,0,*79
1537499087.18,42006,19.88,74362.0,1.17,-10.49,-11.15,0,*72
1537499088.41,42007,19.88,74360.0,1.17,-10.57,-11.23,0,*79
1537499089.69,42008,19.88,74360.3,1.17,-10.71,-11.29,0,*78
1537499090.94,42009,19.88,74360.8,1.17,-10.49,-11.29,0,*72
1537499092.15,42010,19.88,74362.3,1.15,-10.45,-11.11,0,*7F
1537499093.35,42011,19.88,74360.5,1.15,-10.49,-11.15,0,*76
1537499094.58,42012,19.88,74360.8,1.17,-10.49,-11.15,0,*77
1537499095.81,42013,19.88,74362.0,1.17,-10.31,-11.11,0,*7D
1537499097.03,42014,19.88,74360.0,1.17,-10.31,-11.11,0,*7A
1537499098.29,42015,19.88,74362.3,1.17,-10.41,-11.11,0,*7C
1537499099.51,42016,19.88,74362.5,1.17,-10.45,-11.23,0,*7A
1537499100.74,42017,19.88,74360.8,1.17,-10.57,-11.23,0,*78
1537499101.97,42018,19.88,74358.0,1.17,-10.57,-11.23,0,*77
1537499103.19,42019,19.88,74360.5,1.17,-10.57,-11.23,0,*76
1537499104.42,42020,19.88,74360.0,1.17,-10.57,-11.23,0,*7C
1537499105.68,42021,19.88,74358.8,1.17,-10.57,-11.29,0,*77
1537499106.93,42022,19.88,74356.5,1.17,-10.57,-11.29,0,*74
1537499108.16,42023,19.88,74360.3,1.17,-10.49,-11.23,0,*70
1537499109.38,42024,19.88,74358.8,1.17,-10.45,-11.15,0,*7E
1537499110.61,42025,19.88,74358.8,1.17,-10.49,-11.23,0,*76
1537499111.86,42026,19.88,74358.0,1.17,-10.63,-11.23,0,*7D
1537499113.09,42027,19.88,74358.8,1.17,-10.57,-11.23,0,*7B
1537499114.35,42028,19.88,74358.8,1.17,-10.41,-11.01,0,*73
1537499115.6,42029,19.88,74360.5,1.17,-10.41,-11.01,0,*72
1537499116.86,42030,19.88,74358.3,1.17,-10.41,-11.11,0,*7B
1537499118.08,42031,19.88,74352.3,1.17,-10.45,-11.11,0,*7E
1537499119.34,42032,19.88,74356.5,1.17,-10.63,-11.23,0,*78
1537499120.59,42033,19.88,74358.0,1.17,-10.63,-11.23,0,*79
1537499121.87,42034,19.88,74352.0,1.17,-10.63,-11.29,0,*74
1537499123.13,42035,19.88,74354.5,1.17,-10.41,-11.01,0,*7F
1537499124.36,42036,19.88,74348.3,1.17,-10.45,-11.15,0,*7D
1537499125.56,42037,19.88,74354.5,1.15,-10.49,-11.23,0,*77
1537499126.84,42038,19.88,74358.8,1.17,-10.63,-11.29,0,*78
1537499128.1,42039,19.88,74356.0,1.17,-10.71,-11.41,0,*74
1537499129.36,42040,19.88,74354.8,1.17,-10.57,-11.29,0,*70
1537499130.61,42041,19.88,74356.0,1.17,-10.57,-11.29,0,*71
1537499131.87,42042,19.88,74354.5,1.17,-10.75,-11.41,0,*7C
1537499133.14,42043,19.88,74354.8,1.17,-10.63,-11.33,0,*7F
1537499134.42,42044,19.88,74354.3,1.17,-10.71,-11.33,0,*7B
1537499135.67,42045,19.88,74354.3,1.15,-10.75,-11.33,0,*7C
1537499136.93,42046,19.88,74354.8,1.15,-10.63,-11.29,0,*73
1537499138.19,42047,19.88,74352.3,1.15,-10.63,-11.33,0,*79
1537499139.45,42048,19.88,74352.5,1.15,-10.71,-11.33,0,*75
1537499140.68,42049,19.88,74354.8,1.15,-10.75,-11.41,0,*75
1537499141.92,42050,19.88,74352.5,1.15,-10.75,-11.41,0,*7D
1537499143.16,42051,19.88,74352.8,1.15,-10.75,-11.41,0,*7C
1537499144.39,42052,19.88,74354.3,1.15,-10.71,-11.41,0,*7B
1537499145.6,42053,19.88,74354.0,1.15,-10.85,-11.45,0,*75
1537499146.89,42054,19.88,74354.3,1.13,-11.07,-11.63,0,*7B
1537499148.13,42055,19.88,74354.8,1.15,-10.71,-11.41,0,*7C
1537499149.39,42056,19.88,74354.5,1.15,-10.63,-11.33,0,*79
1537499150.63,42057,19.88,74352.0,1.15,-10.97,-11.55,0,*73
1537499151.88,42058,19.88,74354.3,1.15,-10.75,-11.33,0,*70
1537499153.09,42059,19.88,74352.0,1.15,-10.31,-11.01,0,*70
1537499154.36,42060,19.88,74354.5,1.13,-10.35,-11.07,0,*7E
1537499155.64,42061,19.88,74354.0,1.13,-10.63,-11.29,0,*70
1537499156.88,42062,19.88,74354.0,1.15,-10.75,-11.45,0,*78
1537499158.14,42063,19.88,74354.5,1.13,-11.01,-11.63,0,*79
1537499159.37,42064,19.88,74356.8,1.13,-10.89,-11.45,0,*7B
1537499160.64,42065,19.88,74348.0,1.15,-10.63,-11.29,0,*72
1537499161.87,42066,19.88,74352.0,1.15,-10.57,-11.29,0,*76
1537499163.16,42067,19.88,74352.3,1.13,-10.67,-11.37,0,*7D
1537499164.39,42068,19.88,74352.3,1.15,-10.57,-11.33,0,*73
1537499165.62,42069,19.88,74354.3,1.15,-10.75,-11.41,0,*77
1537499166.88,42070,19.88,74352.5,1.15,-10.63,-11.33,0,*7D
1537499168.16,42071,19.88,74354.8,1.13,-10.79,-11.37,0,*75
1537499169.42,42072,19.88,74354.5,1.13,-10.75,-11.45,0,*7F
1537499170.7,42073,19.88,74352.0,1.13,-10.75,-11.37,0,*7B
1537499171.95,42074,19.88,74354.5,1.15,-10.63,-11.33,0,*79
1537499173.23,42075,19.88,74352.8,1.13,-10.75,-11.37,0,*7D
1537499174.49,42076,19.88,74358.0,1.13,-10.79,-11.45,0,*77
1537499175.73,42077,19.88,74356.0,1.15,-10.71,-11.41,0,*7C
1537499177.01,42078,19.88,74358.5,1.13,-10.79,-11.59,0,*74
1537499178.26,42079,19.88,74352.8,1.13,-10.89,-11.59,0,*7A
1537499179.52,42080,19.88,74354.5,1.13,-10.89,-11.59,0,*7C
1537499180.78,42081,19.88,74358.0,1.13,-10.93,-11.63,0,*7F
1537499182.04,42082,19.88,74356.3,1.13,-10.79,-11.45,0,*7C
1537499183.3,42083,19.88,74358.8,1.13,-10.89,-11.63,0,*76
1537499184.56,42084,19.88,74356.3,1.13,-10.93,-11.59,0,*73
1537499185.77,42085,19.88,74356.3,1.15,-10.89,-11.45,0,*72
1537499187.03,42086,19.88,74356.0,1.13,-10.79,-11.45,0,*78
1537499188.28,42087,19.88,74358.0,1.13,-10.93,-11.59,0,*70
1537499189.56,42088,19.88,74356.3,1.13,-10.75,-11.37,0,*7F
1537499190.82,42089,19.88,74356.0,1.15,-10.71,-11.33,0,*78
1537499192.11,42090,19.88,74358.8,1.13,-10.67,-11.37,0,*75
1537499193.39,42091,19.88,74354.5,1.13,-10.63,-11.33,0,*74
1537499194.65,42092,19.88,74354.3,1.15,-10.63,-11.29,0,*7A
1537499195.86,42093,19.88,74358.0,1.15,-10.85,-11.41,0,*7D
1537499197.12,42094,19.88,74360.5,1.13,-11.01,-11.59,0,*78
1537499198.38,42095,19.88,74356.8,1.15,-10.63,-11.29,0,*7D
1537499199.62,42096,19.88,74362.0,1.15,-10.63,-11.15,0,*71
1537499200.85,42097,19.88,74356.0,1.15,-10.89,-11.55,0,*70
1537499202.09,42098,19.88,74354.0,1.15,-10.89,-11.55,0,*7F
1537499203.37,42099,19.88,74358.0,1.13,-10.75,-11.37,0,*7F
1537499204.6,42100,19.88,74358.0,1.15,-10.89,-11.55,0,*7F
1537499205.84,42101,19.88,74356.5,1.15,-10.97,-11.55,0,*71
1537499207.08,42102,19.88,74352.5,1.15,-11.01,-11.67,0,*7D
1537499208.29,42103,19.88,74352.8,1.15,-10.89,-11.45,0,*7D
1537499209.52,42104,19.88,74358.8,1.13,-10.93,-11.45,0,*77
1537499210.76,42105,19.88,74356.3,1.15,-10.97,-11.59,0,*79
1537499212.03,42106,19.88,74356.5,1.13,-11.01,-11.63,0,*7B
1537499213.32,42107,19.88,74358.3,1.13,-11.07,-11.63,0,*7C
1537499214.55,42108,19.88,74352.3,1.13,-10.89,-11.45,0,*70
1537499215.83,42109,19.88,74356.0,1.13,-10.75,-11.37,0,*77
1537499217.06,42110,19.88,74356.5,1.13,-10.89,-11.45,0,*79
1537499218.29,42111,19.88,74354.8,1.11,-10.93,-11.51,0,*74
1537499219.53,42112,19.88,74354.8,1.15,-11.01,-11.55,0,*7D
1537499220.8,42113,19.88,74356.0,1.13,-11.01,-11.63,0,*7F
1537499222.01,42114,19.88,74356.8,1.15,-10.85,-11.41,0,*73
1537499223.26,42115,19.88,74356.3,1.13,-10.79,-11.45,0,*73
1537499224.51,42116,19.88,74356.5,1.13,-10.53,-11.33,0,*79
1537499225.79,42117,19.88,74358.5,1.13,-10.79,-11.37,0,*74
1537499227.06,42118,19.88,74356.5,1.13,-11.01,-11.63,0,*74
1537499228.31,42119,19.88,74356.3,1.13,-10.93,-11.51,0,*7E
1537499229.57,42120,19.88,74356.3,1.13,-10.79,-11.45,0,*75
1537499230.83,42121,19.88,74356.0,1.11,-10.67,-11.33,0,*78
1537499232.04,42122,19.88,74358.0,1.15,-10.85,-11.41,0,*76
1537499233.3,42123,19.88,74356.3,1.13,-10.67,-11.45,0,*79
1537499234.55,42124,19.88,74358.0,1.13,-10.89,-11.51,0,*7B
1537499235.81,42125,19.88,74354.5,1.15,-10.63,-11.33,0,*7C
1537499237.08,42126,19.88,74356.5,1.13,-10.67,-11.45,0,*7C
1537499238.36,42127,19.88,74354.8,1.13,-10.67,-11.37,0,*78
1537499239.64,42128,19.88,74358.5,1.13,-10.75,-11.37,0,*74
1537499240.9,42129,19.88,74356.8,1.13,-11.01,-11.51,0,*77
1537499242.14,42130,19.88,74358.8,1.15,-10.71,-11.41,0,*7E
1537499243.39,42131,19.88,74356.3,1.13,-10.89,-11.37,0,*7F
1537499244.65,42132,19.88,74358.3,1.13,-10.89,-11.51,0,*7C
1537499245.89,42133,19.88,74352.0,1.15,-10.97,-11.59,0,*7C
1537499247.12,42134,19.88,74354.5,1.15,-10.89,-11.55,0,*78
1537499248.4,42135,19.88,74356.5,1.13,-10.75,-11.37,0,*78
1537499249.61,42136,19.88,74356.8,1.15,-10.85,-11.45,0,*77
1537499250.82,42137,19.88,74358.3,1.15,-10.85,-11.41,0,*72
1537499252.09,42138,19.88,74358.8,1.13,-10.79,-11.37,0,*79
1537499253.34,42139,19.88,74354.8,1.13,-10.53,-11.33,0,*74
1537499254.62,42140,19.88,74358.8,1.13,-10.75,-11.37,0,*7A
1537499255.88,42141,19.88,74358.3,1.13,-10.79,-11.45,0,*72
1537499257.11,42142,19.88,74358.3,1.13,-10.49,-11.19,0,*7B
1537499258.37,42143,19.88,74362.8,1.13,-10.49,-11.07,0,*75
1537499259.59,42144,19.88,74356.5,1.13,-10.53,-11.15,0,*7A
1537499260.84,42145,19.88,74358.0,1.13,-10.53,-11.29,0,*74
1537499262.1,42146,19.88,74358.0,1.15,-10.71,-11.33,0,*7A
1537499263.38,42147,19.88,74358.0,1.13,-10.67,-11.33,0,*7A
1537499264.64,42148,19.88,74356.0,1.13,-10.93,-11.59,0,*72
1537499265.88,42149,19.88,74358.5,1.15,-11.01,-11.59,0,*7F
1537499267.12,42150,19.88,74360.8,1.15,-10.75,-11.41,0,*7C
1537499268.37,42151,19.88,74356.0,1.13,-10.93,-11.51,0,*72
1537499269.66,42152,19.88,74360.3,1.13,-11.07,-11.77,0,*79
1537499270.94,42153,19.88,74356.8,1.13,-11.07,-11.77,0,*78
1537499272.19,42154,19.88,74362.3,1.13,-11.15,-11.85,0,*71
1537499273.48,42155,19.88,74360.8,1.13,-11.07,-11.73,0,*7A
1537499274.76,42156,19.88,74356.3,1.13,-11.07,-11.77,0,*7D
1537499275.99,42157,19.88,74358.3,1.11,-11.19,-11.97,0,*7F
1537499277.22,42158,19.88,74356.0,1.11,-11.15,-11.85,0,*7F
1537499278.45,42159,19.88,74356.5,1.11,-11.15,-11.89,0,*72
1537499279.7,42160,19.88,74356.8,1.11,-11.07,-11.77,0,*7A
1537499280.93,42161,19.88,74362.8,1.11,-10.89,-11.59,0,*70
1537499282.19,42162,19.88,74358.5,1.11,-10.75,-11.37,0,*78
1537499283.44,42163,19.88,74360.8,1.11,-10.79,-11.37,0,*75
1537499284.72,42164,19.88,74358.0,1.09,-11.07,-11.63,0,*72
1537499285.97,42165,19.88,74360.5,1.09,-11.11,-11.81,0,*78
1537499287.21,42166,19.88,74360.5,1.11,-11.01,-11.63,0,*7F
1537499288.46,42167,19.88,74360.8,1.09,-11.11,-11.81,0,*7A
1537499289.72,42168,19.88,74358.3,1.09,-11.11,-11.89,0,*7D
1537499291.0,42169,19.88,74356.3,1.09,-11.07,-11.67,0,*7B
1537499292.26,42170,19.88,74360.3,1.09,-10.93,-11.55,0,*7E
1537499293.49,42171,19.88,74360.0,1.11,-10.93,-11.67,0,*77
1537499294.75,42172,19.88,74358.8,1.09,-11.11,-11.67,0,*76
1537499296.03,42173,19.88,74358.3,1.09,-11.07,-11.67,0,*70
1537499297.32,42174,19.88,74362.3,1.09,-11.07,-11.67,0,*77
1537499298.57,42175,19.88,74362.3,1.09,-11.11,-11.77,0,*70
1537499299.82,42176,19.88,74362.3,1.09,-11.11,-11.89,0,*72
1537499301.07,42177,19.88,74358.8,1.09,-11.19,-11.81,0,*73
1537499302.35,42178,19.88,74362.5,1.09,-11.07,-11.67,0,*7B
1537499303.61,42179,19.88,74358.5,1.09,-10.93,-11.55,0,*77
1537499304.87,42180,19.88,74360.8,1.09,-10.97,-11.63,0,*70